Home   Weather   Tuzla   Past weeks

Flag for Bosnia-Herzegovina Past Weather in Tuzla, Bosnia-Herzegovina — Yesterday and Last 2 Weeks

52 °F


Feels Like: 51 °F
Forecast: 41 / 55 °F
Wind: 3 mph from Northwest

Location: Tuzla

Current Time: Oct 21, 2016 at 1:16:28 PM

Latest Report: Oct 21, 2016 at 12:30 PM

Visibility: 3 mi

Pressure: 29.89 "Hg

Humidity: 88%

Dew Point: 48 °F

Location of TuzlaLocation

Past Weather in Tuzla — Graph


Tuzla Temperature Yesterday

Maximum temperature yesterday: 68 °F (at 2:00 PM)
Minimum temperature yesterday: 39 °F (at 6:00 AM)
Average temperature yesterday: 54 °F

High & Low Weather Summary for the Past Weeks

High68 °F (Oct 14, 2:30 PM)100% (Oct 7, 6:30 AM)30.33 "Hg (Oct 7, 6:30 AM)
Low30 °F (Oct 7, 6:30 AM)25% (Oct 6, 2:00 PM)29.77 "Hg (Oct 12, 6:30 AM)
Average51 °F74%30.06 "Hg
* Reported Oct 6 12:00 PM — Oct 21 12:00 PM, Tuzla, Weather by CustomWeather, © 2016

Note: Actual official high and low records may vary slightly from our data, if they occured in-between our weather recording intervals... More about our weather records


Tuzla Weather History for the Previous 24 Hours

Scroll right to see more
Time TempWeatherWind HumidityBarometerVisibility
12:00 PM
Fri, Oct 21
52 °FFog.7 mph88%29.89 "Hg2 mi
11:30 AM50 °FFog.7 mph94%29.89 "Hg1 mi
11:00 AM50 °FFog.6 mph94%29.89 "Hg1 mi
10:00 AM50 °FFog.5 mph94%29.89 "Hg2 mi
9:00 AM50 °FFog.5 mph100%29.89 "Hg1 mi
8:00 AM50 °FFog.6 mph100%29.89 "Hg1 mi
7:00 AM50 °FFog.2 mph100%29.89 "Hg1 mi
6:30 AM50 °FFog.1 mph100%29.89 "Hg1 mi
9:30 PM
Thu, Oct 20
50 °FLight rain. Fog.6 mph100%29.95 "Hg1 mi
9:00 PM50 °FRain. Fog.8 mph100%29.95 "Hg1 mi
8:30 PM52 °FLight rain. Fog.6 mph100%29.92 "Hg2 mi
8:00 PM52 °FFog.7 mph100%29.92 "Hg2 mi
7:30 PM52 °FLight rain. Fog.6 mph100%29.92 "Hg2 mi
7:00 PM54 °FLight rain. Fog.7 mph94%29.92 "Hg2 mi
6:30 PM55 °FLight rain. Passing clouds.6 mph94%29.92 "Hg4 mi
6:00 PM59 °FLight rain. Passing clouds.5 mph88%29.92 "Hg5 mi
5:30 PM59 °FLight rain. Partly sunny.7 mph82%29.92 "Hg5 mi
5:00 PM61 °FLight rain. Partly sunny.2 mph72%29.89 "HgN/A
4:30 PM63 °FPartly sunny.2 mph64%29.89 "HgN/A
4:00 PM64 °FPartly sunny.1 mph60%29.89 "HgN/A
3:30 PM66 °FPartly sunny.2 mph49%29.89 "HgN/A
3:00 PM66 °FScattered clouds.1 mph46%29.89 "HgN/A
2:30 PM66 °FScattered clouds.3 mph46%29.89 "Hg5 mi
2:00 PM68 °FScattered clouds.2 mph43%29.89 "Hg4 mi
1:30 PM64 °FPassing clouds.5 mph49%29.89 "HgN/A
1:00 PM66 °FPassing clouds.6 mph46%29.92 "HgN/A
Weather by CustomWeather, © 2016

See weather overviewHow to use our weather pages